Location: Hackbridge
(51.3833°N, 0.1500°W)
Time: 13:11:17
(UTC+00:00)

STARLINK-28 - Pass Details

Date: 13 October 2019
Orbit: 548 x 551 km, 53.0° (Epoch: 14 November)

Event Time Altitude Azimuth Distance (km) Brightness Sun altitude
Rises 18:12:14 0° 217° (SW) 2,707 7.7 -10.1°
Reaches altitude 10° 18:14:36 10° 208° (SSW) 1,817 6.6 -10.5°
Maximum altitude 18:18:18 33° 144° (SE) 940 4.5 -11.0°
Enters shadow 18:20:52 17° 89° (E) 1,432 5.1 -11.4°
